Back to catalog

TITAN 3C TRANSTAGE DEB

AliveLEO
NORAD 1653·DEBRIS·🇺🇸 United States

Launched Oct 15, 1965 from Cape Canaveral Space Force Station

Loading…

Next Passes (next 24 hours)

TLE

FreshSource: Space-Track

Epoch: Sep 14, 2026, 13:16 UTC

1 01653U 65082Q   26257.55325418  .00000281  00000-0  44311-4 0  9999
2 01653  32.1202 354.2993 0040563 145.3058 215.0243 14.64383129224619

Track TITAN 3C TRANSTAGE DEB in real time with AllMySat

Download on the App Store